When you browse on this site, cookies collect data to enhance your experience and personalize the content and advertising you see.
Visit our Privacy Policy to learn more. By continuing to use the site, you agree to this use of cookies and data.
  • In Lithuania
  • List of Countries
  • For 7 days
  • Water Temperature
  • Satellite Maps
  • Weather Map
  • Weather Widgets
  • user-avatar
    Login

    Hourly Weather Kofanov

    Today, 11 December, Tuesday

    Time Temperature Precipitation Wind Pressure Humidity
    00:00 +3°C° 0 mm 4 mps 737 mmHg 89%
    01:00 +3°C° 0 mm 4 mps 737 mmHg 89%
    02:00 +3°C° 0 mm 4 mps 737 mmHg 90%
    03:00 +2°C° 0 mm 3 mps 737 mmHg 94%
    04:00 +2°C° 0 mm 3 mps 736 mmHg 93%
    05:00 +1°C° 0 mm 4 mps 736 mmHg 92%
    06:00 +1°C° 0 mm 5 mps 736 mmHg 91%
    07:00 +2°C° 0 mm 5 mps 736 mmHg 90%
    08:00 +2°C° 0 mm 5 mps 735 mmHg 90%
    09:00 +2°C° 0 mm 6 mps 735 mmHg 89%
    10:00 +3°C° 0 mm 6 mps 734 mmHg 86%
    11:00 +4°C° 0 mm 7 mps 734 mmHg 84%
    12:00 +4°C° 0 mm 8 mps 733 mmHg 81%
    13:00 +4°C° 0 mm 7 mps 733 mmHg 81%
    14:00 +5°C° 0 mm 7 mps 732 mmHg 81%
    15:00 +5°C° 0 mm 7 mps 732 mmHg 82%
    16:00 +4°C° 0.2 mm 6 mps 732 mmHg 84%
    17:00 +5°C° 0.2 mm 4 mps 733 mmHg 87%
    18:00 +5°C° 0.2 mm 3 mps 733 mmHg 89%
    19:00 +5°C° 0.2 mm 3 mps 733 mmHg 90%
    20:00 +5°C° 0.2 mm 3 mps 733 mmHg 91%
    21:00 +5°C° 0.2 mm 2 mps 733 mmHg 92%
    22:00 +5°C° 0 mm 2 mps 734 mmHg 91%
    23:00 +6°C° 0 mm 1 mps 734 mmHg 90%

    Tomorrow, 12 December, Wednesday

    Time Temperature Precipitation Wind Pressure Humidity
    00:00 +6°C° 0 mm 1 mps 735 mmHg 89%
    01:00 +6°C° 0 mm 1 mps 735 mmHg 90%
    02:00 +6°C° 0 mm 1 mps 735 mmHg 90%
    03:00 +5°C° 0 mm 2 mps 735 mmHg 91%
    04:00 +5°C° 0 mm 2 mps 736 mmHg 91%
    05:00 +4°C° 0 mm 2 mps 736 mmHg 92%
    06:00 +4°C° 0 mm 2 mps 736 mmHg 92%
    07:00 +4°C° 0 mm 2 mps 736 mmHg 92%
    08:00 +4°C° 0 mm 3 mps 736 mmHg 92%
    09:00 +4°C° 0 mm 3 mps 736 mmHg 93%
    10:00 +5°C° 0 mm 3 mps 736 mmHg 88%
    11:00 +7°C° 0 mm 2 mps 736 mmHg 84%
    12:00 +8°C° 0 mm 2 mps 736 mmHg 80%
    13:00 +7°C° 0.4 mm 2 mps 736 mmHg 82%
    14:00 +8°C° 0.4 mm 1 mps 736 mmHg 85%
    15:00 +8°C° 0.4 mm 1 mps 736 mmHg 87%
    16:00 +7°C° 0.9 mm 1 mps 736 mmHg 90%
    17:00 +7°C° 0.9 mm 1 mps 737 mmHg 92%
    18:00 +5°C° 0.9 mm 2 mps 737 mmHg 94%
    19:00 +5°C° 1.4 mm 2 mps 737 mmHg 92%
    20:00 +5°C° 1.4 mm 2 mps 737 mmHg 91%
    21:00 +3°C° 1.4 mm 3 mps 738 mmHg 89%
    22:00 +4°C° 0.4 mm 2 mps 738 mmHg 87%
    23:00 +4°C° 0.4 mm 2 mps 738 mmHg 85%

    Day after tomorrow, 13 December, Thursday

    Time Temperature Precipitation Wind Pressure Humidity
    00:00 +4°C° 0.4 mm 2 mps 739 mmHg 83%
    01:00 +4°C° 0.2 mm 2 mps 739 mmHg 83%
    02:00 +4°C° 0.2 mm 2 mps 739 mmHg 83%
    03:00 +4°C° 0.2 mm 2 mps 739 mmHg 83%
    04:00 +3°C° 0 mm 2 mps 740 mmHg 84%
    05:00 +3°C° 0 mm 2 mps 740 mmHg 85%
    06:00 +3°C° 0 mm 2 mps 740 mmHg 86%
    07:00 +3°C° 0 mm 2 mps 741 mmHg 85%
    08:00 +3°C° 0 mm 2 mps 741 mmHg 85%
    09:00 +3°C° 0 mm 2 mps 742 mmHg 84%
    10:00 +3°C° 0 mm 2 mps 742 mmHg 81%
    11:00 +4°C° 0 mm 2 mps 742 mmHg 78%
    12:00 +4°C° 0 mm 2 mps 742 mmHg 74%
    13:00 +3°C° 0 mm 3 mps 742 mmHg 73%
    14:00 +3°C° 0 mm 3 mps 743 mmHg 72%
    15:00 +3°C° 0 mm 3 mps 743 mmHg 70%
    16:00 +3°C° 0 mm 3 mps 743 mmHg 73%
    17:00 +3°C° 0 mm 2 mps 744 mmHg 76%
    18:00 +3°C° 0 mm 2 mps 744 mmHg 79%
    19:00 +2°C° 0 mm 2 mps 745 mmHg 80%
    20:00 +2°C° 0 mm 2 mps 745 mmHg 81%
    21:00 +2°C° 0 mm 2 mps 745 mmHg 82%
    22:00 +2°C° 0 mm 2 mps 746 mmHg 82%
    23:00 +2°C° 0 mm 2 mps 746 mmHg 83%

    14 December, Friday

    Time Temperature Precipitation Wind Pressure Humidity
    00:00 +2°C° 0 mm 2 mps 746 mmHg 84%
    01:00 +2°C° 0 mm 2 mps 746 mmHg 84%
    02:00 +1°C° 0 mm 2 mps 746 mmHg 85%
    03:00 +2°C° 0 mm 1 mps 746 mmHg 86%
    04:00 +2°C° 0 mm 1 mps 746 mmHg 86%
    05:00 +2°C° 0 mm 1 mps 747 mmHg 86%
    06:00 +1°C° 0 mm 1 mps 747 mmHg 86%
    07:00 +2°C° 0 mm 1 mps 747 mmHg 84%
    08:00 +2°C° 0 mm 1 mps 747 mmHg 82%
    09:00 +3°C° 0 mm 1 mps 747 mmHg 80%
    10:00 +4°C° 0 mm 1 mps 747 mmHg 74%
    11:00 +5°C° 0 mm 1 mps 746 mmHg 68%
    12:00 +6°C° 0 mm 1 mps 746 mmHg 62%
    13:00 +6°C° 0 mm 1 mps 746 mmHg 62%
    14:00 +6°C° 0 mm 1 mps 746 mmHg 61%
    15:00 +5°C° 0 mm 0 mps 746 mmHg 61%
    16:00 +5°C° 0 mm 0 mps 746 mmHg 64%
    17:00 +4°C° 0 mm 0 mps 747 mmHg 68%
    18:00 +3°C° 0 mm 0 mps 747 mmHg 72%
    19:00 +4°C° 0 mm 1 mps 747 mmHg 72%
    20:00 +3°C° 0 mm 1 mps 747 mmHg 73%
    21:00 +3°C° 0 mm 1 mps 747 mmHg 74%
    22:00 +3°C° 0 mm 1 mps 747 mmHg 74%
    23:00 +2°C° 0 mm 2 mps 747 mmHg 74%

    15 December, Saturday

    Time Temperature Precipitation Wind Pressure Humidity
    00:00 +2°C° 0 mm 2 mps 747 mmHg 74%
    01:00 +2°C° 0 mm 1 mps 748 mmHg 74%
    02:00 +2°C° 0 mm 1 mps 748 mmHg 73%
    03:00 +2°C° 0 mm 1 mps 748 mmHg 73%
    04:00 +2°C° 0 mm 1 mps 748 mmHg 73%
    05:00 +2°C° 0 mm 1 mps 748 mmHg 73%
    06:00 +1°C° 0 mm 2 mps 749 mmHg 73%
    07:00 +2°C° 0 mm 2 mps 749 mmHg 73%
    08:00 +2°C° 0 mm 2 mps 749 mmHg 72%
    09:00 +2°C° 0 mm 2 mps 750 mmHg 72%
    10:00 +3°C° 0 mm 2 mps 750 mmHg 70%
    11:00 +4°C° 0 mm 2 mps 750 mmHg 69%
    12:00 +4°C° 0 mm 3 mps 750 mmHg 67%
    13:00 +4°C° 0 mm 3 mps 750 mmHg 68%
    14:00 +4°C° 0 mm 3 mps 750 mmHg 69%
    15:00 +4°C° 0 mm 3 mps 750 mmHg 70%
    16:00 +4°C° 0 mm 2 mps 750 mmHg 75%
    17:00 +3°C° 0 mm 2 mps 751 mmHg 80%
    18:00 +3°C° 0 mm 1 mps 751 mmHg 84%
    19:00 +2°C° 0 mm 1 mps 751 mmHg 86%
    20:00 +2°C° 0 mm 1 mps 751 mmHg 88%
    21:00 +2°C° 0 mm 1 mps 752 mmHg 89%
    22:00 +1°C° 0 mm 1 mps 752 mmHg 90%
    23:00 +1°C° 0 mm 1 mps 752 mmHg 91%

    16 December, Sunday

    Time Temperature Precipitation Wind Pressure Humidity
    00:00 -2°C° 0 mm 2 mps 752 mmHg 92%
    01:00 -2°C° 0 mm 2 mps 752 mmHg 92%
    02:00 -2°C° 0 mm 2 mps 752 mmHg 91%
    03:00 -2°C° 0 mm 2 mps 752 mmHg 91%
    04:00 -2°C° 0 mm 2 mps 752 mmHg 90%
    05:00 -2°C° 0 mm 3 mps 752 mmHg 90%
    06:00 -2°C° 0 mm 3 mps 752 mmHg 89%
    07:00 -2°C° 0 mm 3 mps 752 mmHg 88%
    08:00 -3°C° 0 mm 4 mps 752 mmHg 86%
    09:00 -3°C° 0 mm 4 mps 753 mmHg 84%
    10:00 -2°C° 0 mm 5 mps 752 mmHg 80%
    11:00 -2°C° 0 mm 5 mps 752 mmHg 77%
    12:00 -1°C° 0 mm 5 mps 752 mmHg 73%
    13:00 -2°C° 0 mm 6 mps 752 mmHg 73%
    14:00 -2°C° 0 mm 6 mps 751 mmHg 72%
    15:00 -2°C° 0 mm 6 mps 751 mmHg 72%
    16:00 -3°C° 0 mm 6 mps 751 mmHg 74%
    17:00 -3°C° 0 mm 6 mps 752 mmHg 76%
    18:00 -4°C° 0 mm 6 mps 752 mmHg 78%
    19:00 -4°C° 0 mm 6 mps 752 mmHg 78%
    20:00 -4°C° 0 mm 7 mps 752 mmHg 78%
    21:00 -4°C° 0 mm 7 mps 752 mmHg 78%
    22:00 -4°C° 0 mm 7 mps 751 mmHg 78%
    23:00 -4°C° 0 mm 7 mps 751 mmHg 78%
    Show more